Year,Month,Day,Hour,Minute,Value (Times are PST for windgust in km/hr)
2015,12,13,00,00,40.20
2015,12,13,00,01,33.80
2015,12,13,00,02,32.20
2015,12,13,00,03,32.20
2015,12,13,00,04,35.40
2015,12,13,00,05,32.20
2015,12,13,00,06,43.50
2015,12,13,00,07,54.70
2015,12,13,00,08,30.60
2015,12,13,00,09,41.80
2015,12,13,00,10,43.50
2015,12,13,00,11,40.20
2015,12,13,00,12,27.40
2015,12,13,00,13,38.60
2015,12,13,00,14,43.50
2015,12,13,00,15,37.00
2015,12,13,00,16,43.50
2015,12,13,00,17,41.80
2015,12,13,00,18,48.30
2015,12,13,00,19,46.70
2015,12,13,00,20,45.10
2015,12,13,00,21,32.20
2015,12,13,00,22,32.20
2015,12,13,00,23,48.30
2015,12,13,00,24,38.60
2015,12,13,00,25,33.80
2015,12,13,00,26,38.60
2015,12,13,00,27,38.60
2015,12,13,00,28,46.70
2015,12,13,00,29,35.40
2015,12,13,00,30,43.50
2015,12,13,00,31,43.50
2015,12,13,00,32,40.20
2015,12,13,00,33,35.40
2015,12,13,00,34,33.80
2015,12,13,00,35,29.00
2015,12,13,00,36,32.20
2015,12,13,00,37,41.80
2015,12,13,00,38,24.20
2015,12,13,00,39,22.50
2015,12,13,00,40,19.30
2015,12,13,00,41,24.20
2015,12,13,00,42,19.30
2015,12,13,00,43,25.70
2015,12,13,00,44,16.10
2015,12,13,00,45,22.50
2015,12,13,00,46,27.40
2015,12,13,00,47,32.20
2015,12,13,00,48,46.70
2015,12,13,00,49,24.20
2015,12,13,00,50,27.40
2015,12,13,00,51,24.20
2015,12,13,00,52,29.00
2015,12,13,00,53,29.00
2015,12,13,00,54,19.30
2015,12,13,00,55,29.00
2015,12,13,00,56,27.40
2015,12,13,00,57,19.30
2015,12,13,00,58,30.60
2015,12,13,00,59,14.50
2015,12,13,01,00,16.10
2015,12,13,01,01,25.70
2015,12,13,01,02,27.40
2015,12,13,01,03,32.20
2015,12,13,01,04,22.50
2015,12,13,01,05,29.00
2015,12,13,01,06,22.50
2015,12,13,01,07,17.70
2015,12,13,01,08,17.70
2015,12,13,01,09,20.90
2015,12,13,01,10,27.40
2015,12,13,01,11,25.70
2015,12,13,01,12,12.90
2015,12,13,01,13,16.10
2015,12,13,01,14,20.90
2015,12,13,01,15,25.70
2015,12,13,01,16,35.40
2015,12,13,01,17,29.00
2015,12,13,01,18,27.40
2015,12,13,01,19,29.00
2015,12,13,01,20,27.40
2015,12,13,01,21,27.40
2015,12,13,01,22,30.60
2015,12,13,01,23,30.60
2015,12,13,01,24,17.70
2015,12,13,01,25,20.90
2015,12,13,01,26,16.10
2015,12,13,01,27,20.90
2015,12,13,01,28,24.20
2015,12,13,01,29,35.40
2015,12,13,01,30,33.80
2015,12,13,01,31,20.90
2015,12,13,01,32,33.80
2015,12,13,01,33,33.80
2015,12,13,01,34,27.40
2015,12,13,01,35,27.40
2015,12,13,01,36,48.30
2015,12,13,01,37,27.40
2015,12,13,01,38,33.80
2015,12,13,01,39,27.40
2015,12,13,01,40,30.60
2015,12,13,01,41,33.80
2015,12,13,01,42,33.80
2015,12,13,01,43,38.60
2015,12,13,01,44,30.60
2015,12,13,01,45,37.00
2015,12,13,01,46,45.10
2015,12,13,01,47,32.20
2015,12,13,01,48,37.00
2015,12,13,01,49,32.20
2015,12,13,01,50,30.60
2015,12,13,01,51,33.80
2015,12,13,01,52,41.80
2015,12,13,01,53,30.60
2015,12,13,01,54,33.80
2015,12,13,01,55,43.50
2015,12,13,01,56,41.80
2015,12,13,01,57,32.20
2015,12,13,01,58,37.00
2015,12,13,01,59,37.00
2015,12,13,02,00,49.90
2015,12,13,02,01,38.60
2015,12,13,02,02,30.60
2015,12,13,02,03,40.20
2015,12,13,02,04,53.10
2015,12,13,02,05,46.70
2015,12,13,02,06,25.70
2015,12,13,02,07,48.30
2015,12,13,02,08,22.50
2015,12,13,02,09,20.90
2015,12,13,02,10,37.00
2015,12,13,02,11,40.20
2015,12,13,02,12,32.20
2015,12,13,02,13,43.50
2015,12,13,02,14,32.20
2015,12,13,02,15,32.20
2015,12,13,02,16,32.20
2015,12,13,02,17,33.80
2015,12,13,02,18,25.70
2015,12,13,02,19,20.90
2015,12,13,02,20,27.40
2015,12,13,02,21,25.70
2015,12,13,02,22,27.40
2015,12,13,02,23,25.70
2015,12,13,02,24,35.40
2015,12,13,02,25,30.60
2015,12,13,02,26,22.50
2015,12,13,02,27,20.90
2015,12,13,02,28,22.50
2015,12,13,02,29,24.20
2015,12,13,02,30,20.90
2015,12,13,02,31,27.40
2015,12,13,02,32,32.20
2015,12,13,02,33,30.60
2015,12,13,02,34,40.20
2015,12,13,02,35,30.60
2015,12,13,02,36,30.60
2015,12,13,02,37,32.20
2015,12,13,02,38,29.00
2015,12,13,02,39,22.50
2015,12,13,02,40,20.90
2015,12,13,02,41,33.80
2015,12,13,02,42,30.60
2015,12,13,02,43,45.10
2015,12,13,02,44,45.10
2015,12,13,02,45,45.10
2015,12,13,02,46,46.70
2015,12,13,02,47,35.40
2015,12,13,02,48,45.10
2015,12,13,02,49,35.40
2015,12,13,02,50,35.40
2015,12,13,02,51,29.00
2015,12,13,02,52,41.80
2015,12,13,02,53,40.20
2015,12,13,02,54,40.20
2015,12,13,02,55,38.60
2015,12,13,02,56,49.90
2015,12,13,02,57,32.20
2015,12,13,02,58,48.30
2015,12,13,02,59,46.70
2015,12,13,03,00,54.70
2015,12,13,03,01,53.10
2015,12,13,03,02,38.60
2015,12,13,03,03,38.60
2015,12,13,03,04,37.00
2015,12,13,03,05,40.20
2015,12,13,03,06,45.10
2015,12,13,03,07,27.40
2015,12,13,03,08,37.00
2015,12,13,03,09,41.80
2015,12,13,03,10,40.20
2015,12,13,03,11,41.80
2015,12,13,03,12,32.20
2015,12,13,03,13,41.80
2015,12,13,03,14,40.20
2015,12,13,03,15,49.90
2015,12,13,03,16,43.50
2015,12,13,03,17,40.20
2015,12,13,03,18,41.80
2015,12,13,03,19,49.90
2015,12,13,03,20,41.80
2015,12,13,03,21,46.70
2015,12,13,03,22,41.80
2015,12,13,03,23,49.90
2015,12,13,03,24,48.30
2015,12,13,03,25,38.60
2015,12,13,03,26,41.80
2015,12,13,03,27,41.80
2015,12,13,03,28,38.60
2015,12,13,03,29,37.00
2015,12,13,03,30,38.60
2015,12,13,03,31,33.80
2015,12,13,03,32,45.10
2015,12,13,03,33,46.70
2015,12,13,03,34,40.20
2015,12,13,03,35,46.70
2015,12,13,03,36,43.50
2015,12,13,03,37,64.40
2015,12,13,03,38,56.30
2015,12,13,03,39,53.10
2015,12,13,03,40,49.90
2015,12,13,03,41,43.50
2015,12,13,03,42,40.20
2015,12,13,03,43,35.40
2015,12,13,03,44,49.90
2015,12,13,03,45,37.00
2015,12,13,03,46,35.40
2015,12,13,03,47,33.80
2015,12,13,03,48,35.40
2015,12,13,03,49,24.20
2015,12,13,03,50,27.40
2015,12,13,03,51,33.80
2015,12,13,03,52,37.00
2015,12,13,03,53,30.60
2015,12,13,03,54,35.40
2015,12,13,03,55,30.60
2015,12,13,03,56,35.40
2015,12,13,03,57,37.00
2015,12,13,03,58,56.30
2015,12,13,03,59,56.30
2015,12,13,04,00,37.00
2015,12,13,04,01,32.20
2015,12,13,04,02,35.40
2015,12,13,04,03,38.60
2015,12,13,04,04,33.80
2015,12,13,04,05,32.20
2015,12,13,04,06,32.20
2015,12,13,04,07,27.40
2015,12,13,04,08,35.40
2015,12,13,04,09,32.20
2015,12,13,04,10,40.20
2015,12,13,04,11,27.40
2015,12,13,04,12,30.60
2015,12,13,04,13,41.80
2015,12,13,04,14,41.80
2015,12,13,04,15,22.50
2015,12,13,04,16,30.60
2015,12,13,04,17,43.50
2015,12,13,04,18,45.10
2015,12,13,04,19,32.20
2015,12,13,04,20,33.80
2015,12,13,04,21,43.50
2015,12,13,04,22,45.10
2015,12,13,04,23,32.20
2015,12,13,04,24,45.10
2015,12,13,04,25,40.20
2015,12,13,04,26,41.80
2015,12,13,04,27,40.20
2015,12,13,04,28,27.40
2015,12,13,04,29,29.00
2015,12,13,04,30,32.20
2015,12,13,04,31,24.20
2015,12,13,04,32,43.50
2015,12,13,04,33,43.50
2015,12,13,04,34,35.40
2015,12,13,04,35,41.80
2015,12,13,04,36,46.70
2015,12,13,04,37,43.50
2015,12,13,04,38,43.50
2015,12,13,04,39,35.40
2015,12,13,04,40,43.50
2015,12,13,04,41,43.50
2015,12,13,04,42,32.20
2015,12,13,04,43,46.70
2015,12,13,04,44,37.00
2015,12,13,04,45,41.80
2015,12,13,04,46,49.90
2015,12,13,04,47,38.60
2015,12,13,04,48,40.20
2015,12,13,04,49,33.80
2015,12,13,04,50,35.40
2015,12,13,04,51,32.20
2015,12,13,04,52,38.60
2015,12,13,04,53,45.10
2015,12,13,04,54,30.60
2015,12,13,04,55,32.20
2015,12,13,04,56,32.20
2015,12,13,04,57,41.80
2015,12,13,04,58,33.80
2015,12,13,04,59,33.80
2015,12,13,05,00,48.30
2015,12,13,05,01,46.70
2015,12,13,05,02,20.90
2015,12,13,05,03,25.70
2015,12,13,05,04,33.80
2015,12,13,05,05,30.60
2015,12,13,05,06,30.60
2015,12,13,05,07,32.20
2015,12,13,05,08,24.20
2015,12,13,05,09,16.10
2015,12,13,05,10,17.70
2015,12,13,05,11,29.00
2015,12,13,05,12,22.50
2015,12,13,05,13,29.00
2015,12,13,05,14,22.50
2015,12,13,05,15,22.50
2015,12,13,05,16,30.60
2015,12,13,05,17,17.70
2015,12,13,05,18,33.80
2015,12,13,05,19,33.80
2015,12,13,05,20,29.00
2015,12,13,05,21,25.70
2015,12,13,05,22,25.70
2015,12,13,05,23,22.50
2015,12,13,05,24,27.40
2015,12,13,05,25,30.60
2015,12,13,05,26,20.90
2015,12,13,05,27,30.60
2015,12,13,05,28,24.20
2015,12,13,05,29,25.70
2015,12,13,05,30,35.40
2015,12,13,05,31,32.20
2015,12,13,05,32,33.80
2015,12,13,05,33,37.00
2015,12,13,05,34,45.10
2015,12,13,05,35,30.60
2015,12,13,05,36,30.60
2015,12,13,05,37,37.00
2015,12,13,05,38,30.60
2015,12,13,05,39,33.80
2015,12,13,05,40,38.60
2015,12,13,05,41,30.60
2015,12,13,05,42,32.20
2015,12,13,05,43,29.00
2015,12,13,05,44,22.50
2015,12,13,05,45,22.50
2015,12,13,05,46,48.30
2015,12,13,05,47,43.50
2015,12,13,05,48,35.40
2015,12,13,05,49,29.00
2015,12,13,05,50,38.60
2015,12,13,05,51,32.20
2015,12,13,05,52,30.60
2015,12,13,05,53,27.40
2015,12,13,05,54,30.60
2015,12,13,05,55,20.90
2015,12,13,05,56,25.70
2015,12,13,05,57,27.40
2015,12,13,05,58,25.70
2015,12,13,05,59,24.20
2015,12,13,06,00,22.50
2015,12,13,06,01,38.60
2015,12,13,06,02,38.60
2015,12,13,06,03,40.20
2015,12,13,06,04,41.80
2015,12,13,06,05,37.00
2015,12,13,06,06,38.60
2015,12,13,06,07,30.60
2015,12,13,06,08,25.70
2015,12,13,06,09,24.20
2015,12,13,06,10,37.00
2015,12,13,06,11,32.20
2015,12,13,06,12,33.80
2015,12,13,06,13,22.50
2015,12,13,06,14,32.20
2015,12,13,06,15,40.20
2015,12,13,06,16,38.60
2015,12,13,06,17,20.90
2015,12,13,06,18,22.50
2015,12,13,06,19,38.60
2015,12,13,06,20,24.20
2015,12,13,06,21,29.00
2015,12,13,06,22,29.00
2015,12,13,06,23,32.20
2015,12,13,06,24,33.80
2015,12,13,06,25,32.20
2015,12,13,06,26,40.20
2015,12,13,06,27,38.60
2015,12,13,06,28,32.20
2015,12,13,06,29,27.40
2015,12,13,06,30,24.20
2015,12,13,06,31,48.30
2015,12,13,06,32,38.60
2015,12,13,06,33,30.60
2015,12,13,06,34,29.00
2015,12,13,06,35,29.00
2015,12,13,06,36,17.70
2015,12,13,06,37,27.40
2015,12,13,06,38,20.90
2015,12,13,06,39,27.40
2015,12,13,06,40,38.60
2015,12,13,06,41,38.60
2015,12,13,06,42,29.00
2015,12,13,06,43,29.00
2015,12,13,06,44,35.40
2015,12,13,06,45,25.70
2015,12,13,06,46,29.00
2015,12,13,06,47,30.60
2015,12,13,06,48,30.60
2015,12,13,06,49,37.00
2015,12,13,06,50,20.90
2015,12,13,06,51,25.70
2015,12,13,06,52,29.00
2015,12,13,06,53,32.20
2015,12,13,06,54,33.80
2015,12,13,06,55,37.00
2015,12,13,06,56,35.40
2015,12,13,06,57,38.60
2015,12,13,06,58,30.60
2015,12,13,06,59,33.80
2015,12,13,07,00,30.60
2015,12,13,07,01,24.20
2015,12,13,07,02,35.40
2015,12,13,07,03,24.20
2015,12,13,07,04,22.50
2015,12,13,07,05,35.40
2015,12,13,07,06,33.80
2015,12,13,07,07,35.40
2015,12,13,07,08,35.40
2015,12,13,07,09,22.50
2015,12,13,07,10,40.20
2015,12,13,07,11,35.40
2015,12,13,07,12,25.70
2015,12,13,07,13,25.70
2015,12,13,07,14,27.40
2015,12,13,07,15,29.00
2015,12,13,07,16,37.00
2015,12,13,07,17,29.00
2015,12,13,07,18,33.80
2015,12,13,07,19,29.00
2015,12,13,07,20,43.50
2015,12,13,07,21,33.80
2015,12,13,07,22,33.80
2015,12,13,07,23,29.00
2015,12,13,07,24,29.00
2015,12,13,07,25,33.80
2015,12,13,07,26,32.20
2015,12,13,07,27,38.60
2015,12,13,07,28,33.80
2015,12,13,07,29,43.50
2015,12,13,07,30,32.20
2015,12,13,07,31,38.60
2015,12,13,07,32,35.40
2015,12,13,07,33,35.40
2015,12,13,07,34,27.40
2015,12,13,07,35,32.20
2015,12,13,07,36,27.40
2015,12,13,07,37,29.00
2015,12,13,07,38,24.20
2015,12,13,07,39,22.50
2015,12,13,07,40,33.80
2015,12,13,07,41,30.60
2015,12,13,07,42,32.20
2015,12,13,07,43,32.20
2015,12,13,07,44,40.20
2015,12,13,07,45,35.40
2015,12,13,07,46,22.50
2015,12,13,07,47,33.80
2015,12,13,07,48,32.20
2015,12,13,07,49,24.20
2015,12,13,07,50,38.60
2015,12,13,07,51,32.20
2015,12,13,07,52,30.60
2015,12,13,07,53,38.60
2015,12,13,07,54,33.80
2015,12,13,07,55,25.70
2015,12,13,07,56,19.30
2015,12,13,07,57,24.20
2015,12,13,07,58,29.00
2015,12,13,07,59,35.40
2015,12,13,08,00,30.60
2015,12,13,08,01,25.70
2015,12,13,08,02,29.00
2015,12,13,08,03,29.00
2015,12,13,08,04,24.20
2015,12,13,08,05,14.50
2015,12,13,08,06,16.10
2015,12,13,08,07,24.20
2015,12,13,08,08,20.90
2015,12,13,08,09,20.90
2015,12,13,08,10,20.90
2015,12,13,08,11,22.50
2015,12,13,08,12,30.60
2015,12,13,08,13,22.50
2015,12,13,08,14,22.50
2015,12,13,08,15,22.50
2015,12,13,08,16,25.70
2015,12,13,08,17,27.40
2015,12,13,08,18,27.40
2015,12,13,08,19,32.20
2015,12,13,08,20,20.90
2015,12,13,08,21,25.70
2015,12,13,08,22,25.70
2015,12,13,08,23,25.70
2015,12,13,08,24,35.40
2015,12,13,08,25,29.00
2015,12,13,08,26,20.90
2015,12,13,08,27,29.00
2015,12,13,08,28,33.80
2015,12,13,08,29,16.10
2015,12,13,08,30,19.30
2015,12,13,08,31,27.40
2015,12,13,08,32,22.50
2015,12,13,08,33,27.40
2015,12,13,08,34,30.60
2015,12,13,08,35,30.60
2015,12,13,08,36,24.20
2015,12,13,08,37,37.00
2015,12,13,08,38,32.20
2015,12,13,08,39,37.00
2015,12,13,08,40,29.00
2015,12,13,08,41,33.80
2015,12,13,08,42,29.00
2015,12,13,08,43,37.00
2015,12,13,08,44,37.00
2015,12,13,08,45,45.10
2015,12,13,08,46,37.00
2015,12,13,08,47,33.80
2015,12,13,08,48,35.40
2015,12,13,08,49,25.70
2015,12,13,08,50,25.70
2015,12,13,08,51,25.70
2015,12,13,08,52,32.20
2015,12,13,08,53,32.20
2015,12,13,08,54,27.40
2015,12,13,08,55,27.40
2015,12,13,08,56,25.70
2015,12,13,08,57,27.40
2015,12,13,08,58,33.80
2015,12,13,08,59,30.60
2015,12,13,09,00,35.40
2015,12,13,09,01,35.40
2015,12,13,09,02,32.20
2015,12,13,09,03,24.20
2015,12,13,09,04,22.50
2015,12,13,09,05,33.80
2015,12,13,09,06,30.60
2015,12,13,09,07,35.40
2015,12,13,09,08,33.80
2015,12,13,09,09,25.70
2015,12,13,09,10,32.20
2015,12,13,09,11,22.50
2015,12,13,09,12,19.30
2015,12,13,09,13,22.50
2015,12,13,09,14,20.90
2015,12,13,09,15,25.70
2015,12,13,09,16,27.40
2015,12,13,09,17,24.20
2015,12,13,09,18,38.60
2015,12,13,09,19,32.20
2015,12,13,09,20,33.80
2015,12,13,09,21,33.80
2015,12,13,09,22,27.40
2015,12,13,09,23,29.00
2015,12,13,09,24,32.20
2015,12,13,09,25,19.30
2015,12,13,09,26,25.70
2015,12,13,09,27,29.00
2015,12,13,09,28,22.50
2015,12,13,09,29,29.00
2015,12,13,09,30,25.70
2015,12,13,09,31,33.80
2015,12,13,09,32,19.30
2015,12,13,09,33,27.40
2015,12,13,09,34,25.70
2015,12,13,09,35,22.50
2015,12,13,09,36,35.40
2015,12,13,09,37,32.20
2015,12,13,09,38,30.60
2015,12,13,09,39,25.70
2015,12,13,09,40,27.40
2015,12,13,09,41,20.90
2015,12,13,09,42,37.00
2015,12,13,09,43,30.60
2015,12,13,09,44,35.40
2015,12,13,09,45,22.50
2015,12,13,09,46,33.80
2015,12,13,09,47,20.90
2015,12,13,09,48,27.40
2015,12,13,09,49,38.60
2015,12,13,09,50,35.40
2015,12,13,09,51,32.20
2015,12,13,09,52,33.80
2015,12,13,09,53,20.90
2015,12,13,09,54,29.00
2015,12,13,09,55,25.70
2015,12,13,09,56,33.80
2015,12,13,09,57,40.20
2015,12,13,09,58,25.70
2015,12,13,09,59,22.50
2015,12,13,10,00,25.70
2015,12,13,10,01,32.20
2015,12,13,10,02,22.50
2015,12,13,10,03,14.50
2015,12,13,10,04,22.50
2015,12,13,10,05,19.30
2015,12,13,10,06,20.90
2015,12,13,10,07,29.00
2015,12,13,10,08,29.00
2015,12,13,10,09,19.30
2015,12,13,10,10,29.00
2015,12,13,10,11,22.50
2015,12,13,10,12,27.40
2015,12,13,10,13,27.40
2015,12,13,10,14,25.70
2015,12,13,10,15,19.30
2015,12,13,10,16,29.00
2015,12,13,10,17,20.90
2015,12,13,10,18,37.00
2015,12,13,10,19,38.60
2015,12,13,10,20,27.40
2015,12,13,10,21,30.60
2015,12,13,10,22,40.20
2015,12,13,10,23,32.20
2015,12,13,10,24,27.40
2015,12,13,10,25,32.20
2015,12,13,10,26,29.00
2015,12,13,10,27,43.50
2015,12,13,10,28,32.20
2015,12,13,10,29,41.80
2015,12,13,10,30,24.20
2015,12,13,10,31,27.40
2015,12,13,10,32,25.70
2015,12,13,10,33,29.00
2015,12,13,10,34,27.40
2015,12,13,10,35,24.20
2015,12,13,10,36,24.20
2015,12,13,10,37,20.90
2015,12,13,10,38,29.00
2015,12,13,10,39,25.70
2015,12,13,10,40,24.20
2015,12,13,10,41,20.90
2015,12,13,10,42,24.20
2015,12,13,10,43,25.70
2015,12,13,10,44,22.50
2015,12,13,10,45,27.40
2015,12,13,10,46,25.70
2015,12,13,10,47,19.30
2015,12,13,10,48,17.70
2015,12,13,10,49,22.50
2015,12,13,10,50,24.20
2015,12,13,10,51,29.00
2015,12,13,10,52,22.50
2015,12,13,10,53,24.20
2015,12,13,10,54,22.50
2015,12,13,10,55,25.70
2015,12,13,10,56,25.70
2015,12,13,10,57,19.30
2015,12,13,10,58,25.70
2015,12,13,10,59,30.60
2015,12,13,11,00,25.70
2015,12,13,11,01,27.40
2015,12,13,11,02,20.90
2015,12,13,11,03,12.90
2015,12,13,11,04,24.20
2015,12,13,11,05,24.20
2015,12,13,11,06,24.20
2015,12,13,11,07,9.60
2015,12,13,11,08,20.90
2015,12,13,11,09,16.10
2015,12,13,11,10,19.30
2015,12,13,11,11,16.10
2015,12,13,11,12,14.50
2015,12,13,11,13,16.10
2015,12,13,11,14,19.30
2015,12,13,11,15,19.30
2015,12,13,11,16,19.30
2015,12,13,11,17,14.50
2015,12,13,11,18,14.50
2015,12,13,11,19,12.90
2015,12,13,11,20,12.90
2015,12,13,11,21,9.60
2015,12,13,11,22,12.90
2015,12,13,11,23,12.90
2015,12,13,11,24,14.50
2015,12,13,11,25,11.30
2015,12,13,11,26,17.70
2015,12,13,11,27,14.50
2015,12,13,11,28,12.90
2015,12,13,11,29,8.10
2015,12,13,11,30,8.10
2015,12,13,11,31,12.90
2015,12,13,11,32,14.50
2015,12,13,11,33,6.40
2015,12,13,11,34,6.40
2015,12,13,11,35,8.10
2015,12,13,11,36,9.60
2015,12,13,11,37,9.60
2015,12,13,11,38,9.60
2015,12,13,11,39,8.10
2015,12,13,11,40,9.60
2015,12,13,11,41,14.50
2015,12,13,11,42,9.60
2015,12,13,11,43,8.10
2015,12,13,11,44,6.40
2015,12,13,11,45,6.40
2015,12,13,11,46,8.10
2015,12,13,11,47,8.10
2015,12,13,11,48,9.60
2015,12,13,11,49,12.90
2015,12,13,11,50,8.10
2015,12,13,11,51,8.10
2015,12,13,11,52,9.60
2015,12,13,11,53,6.40
2015,12,13,11,54,9.60
2015,12,13,11,55,8.10
2015,12,13,11,56,8.10
2015,12,13,11,57,6.40
2015,12,13,11,58,6.40
2015,12,13,11,59,6.40
2015,12,13,12,00,6.40
2015,12,13,12,01,12.90
2015,12,13,12,02,3.20
2015,12,13,12,03,6.40
2015,12,13,12,04,6.40
2015,12,13,12,05,4.80
2015,12,13,12,06,4.80
2015,12,13,12,07,6.40
2015,12,13,12,08,6.40
2015,12,13,12,09,4.80
2015,12,13,12,10,6.40
2015,12,13,12,11,6.40
2015,12,13,12,12,3.20
2015,12,13,12,13,3.20
2015,12,13,12,14,3.20
2015,12,13,12,15,3.20
2015,12,13,12,16,3.20
2015,12,13,12,17,3.20
2015,12,13,12,18,3.20
2015,12,13,12,19,3.20
2015,12,13,12,20,1.60
2015,12,13,12,21,4.80
2015,12,13,12,22,4.80
2015,12,13,12,23,3.20
2015,12,13,12,26,6.40
2015,12,13,12,27,3.20
2015,12,13,12,28,3.20
2015,12,13,12,29,4.80
2015,12,13,12,30,3.20
2015,12,13,12,31,4.80
2015,12,13,12,32,6.40
2015,12,13,12,33,4.80
2015,12,13,12,34,4.80
2015,12,13,12,35,4.80
2015,12,13,12,36,4.80
2015,12,13,12,37,3.20
2015,12,13,12,42,4.80
2015,12,13,12,43,4.80
2015,12,13,12,44,4.80
2015,12,13,12,45,4.80
2015,12,13,12,46,8.10
2015,12,13,12,47,8.10
2015,12,13,12,48,4.80
2015,12,13,12,49,3.20
2015,12,13,12,50,4.80
2015,12,13,12,51,4.80
2015,12,13,12,52,6.40
2015,12,13,12,53,6.40
2015,12,13,12,54,4.80
2015,12,13,12,55,6.40
2015,12,13,12,56,6.40
2015,12,13,12,57,4.80
2015,12,13,12,58,3.20
2015,12,13,12,59,1.60
2015,12,13,13,00,3.20
2015,12,13,13,01,1.60
2015,12,13,13,02,1.60
2015,12,13,13,03,3.20
2015,12,13,13,04,1.60
2015,12,13,13,05,1.60
2015,12,13,13,06,3.20
2015,12,13,13,07,1.60
2015,12,13,13,08,3.20
2015,12,13,13,09,3.20
2015,12,13,13,10,3.20
2015,12,13,13,11,3.20
2015,12,13,13,12,4.80
2015,12,13,13,13,4.80
2015,12,13,13,14,4.80
2015,12,13,13,15,3.20
2015,12,13,13,16,4.80
2015,12,13,13,17,4.80
2015,12,13,13,18,3.20
2015,12,13,13,19,3.20
2015,12,13,13,20,11.30
2015,12,13,13,21,14.50
2015,12,13,13,22,11.30
2015,12,13,13,23,6.40
2015,12,13,13,24,9.60
2015,12,13,13,25,6.40
2015,12,13,13,26,11.30
2015,12,13,13,27,4.80
2015,12,13,13,28,6.40
2015,12,13,13,29,6.40
2015,12,13,13,30,8.10
2015,12,13,13,31,6.40
2015,12,13,13,32,9.60
2015,12,13,13,33,9.60
2015,12,13,13,34,6.40
2015,12,13,13,35,9.60
2015,12,13,13,36,6.40
2015,12,13,13,37,11.30
2015,12,13,13,38,8.10
2015,12,13,13,39,8.10
2015,12,13,13,40,4.80
2015,12,13,13,41,9.60
2015,12,13,13,42,9.60
2015,12,13,13,43,11.30
2015,12,13,13,44,6.40
2015,12,13,13,45,6.40
2015,12,13,13,46,8.10
2015,12,13,13,47,6.40
2015,12,13,13,48,3.20
2015,12,13,13,49,6.40
2015,12,13,13,50,6.40
2015,12,13,13,51,6.40
2015,12,13,13,52,6.40
2015,12,13,13,53,8.10
2015,12,13,13,54,8.10
2015,12,13,13,55,8.10
2015,12,13,13,56,9.60
2015,12,13,13,57,8.10
2015,12,13,13,58,4.80
2015,12,13,13,59,6.40
2015,12,13,14,00,8.10
2015,12,13,14,01,6.40
2015,12,13,14,02,6.40
2015,12,13,14,03,6.40
2015,12,13,14,04,8.10
2015,12,13,14,05,9.60
2015,12,13,14,06,8.10
2015,12,13,14,07,8.10
2015,12,13,14,08,8.10
2015,12,13,14,09,8.10
2015,12,13,14,10,4.80
2015,12,13,14,11,8.10
2015,12,13,14,12,3.20
2015,12,13,14,13,4.80
2015,12,13,14,14,9.60
2015,12,13,14,15,4.80
2015,12,13,14,16,6.40
2015,12,13,14,17,6.40
2015,12,13,14,18,4.80
2015,12,13,14,19,3.20
2015,12,13,14,20,6.40
2015,12,13,14,21,12.90
2015,12,13,14,22,8.10
2015,12,13,14,23,6.40
2015,12,13,14,24,4.80
2015,12,13,14,25,8.10
2015,12,13,14,26,6.40
2015,12,13,14,27,6.40
2015,12,13,14,28,6.40
2015,12,13,14,29,12.90
2015,12,13,14,30,14.50
2015,12,13,14,31,9.60
2015,12,13,14,32,8.10
2015,12,13,14,33,12.90
2015,12,13,14,34,9.60
2015,12,13,14,35,8.10
2015,12,13,14,36,11.30
2015,12,13,14,37,16.10
2015,12,13,14,38,12.90
2015,12,13,14,39,17.70
2015,12,13,14,40,17.70
2015,12,13,14,41,14.50
2015,12,13,14,42,9.60
2015,12,13,14,43,4.80
2015,12,13,14,44,9.60
2015,12,13,14,45,16.10
2015,12,13,14,46,17.70
2015,12,13,14,47,9.60
2015,12,13,14,48,6.40
2015,12,13,14,49,14.50
2015,12,13,14,50,14.50
2015,12,13,14,51,8.10
2015,12,13,14,52,4.80
2015,12,13,14,53,9.60
2015,12,13,14,54,9.60
2015,12,13,14,55,9.60
2015,12,13,14,56,11.30
2015,12,13,14,57,8.10
2015,12,13,14,58,14.50
2015,12,13,14,59,9.60
2015,12,13,15,00,12.90
2015,12,13,15,01,11.30
2015,12,13,15,02,12.90
2015,12,13,15,03,12.90
2015,12,13,15,04,11.30
2015,12,13,15,05,8.10
2015,12,13,15,06,8.10
2015,12,13,15,07,12.90
2015,12,13,15,08,9.60
2015,12,13,15,09,11.30
2015,12,13,15,10,6.40
2015,12,13,15,11,6.40
2015,12,13,15,12,11.30
2015,12,13,15,13,9.60
2015,12,13,15,14,12.90
2015,12,13,15,15,11.30
2015,12,13,15,16,11.30
2015,12,13,15,17,6.40
2015,12,13,15,18,11.30
2015,12,13,15,19,6.40
2015,12,13,15,20,12.90
2015,12,13,15,21,11.30
2015,12,13,15,22,9.60
2015,12,13,15,23,9.60
2015,12,13,15,24,12.90
2015,12,13,15,25,6.40
2015,12,13,15,26,6.40
2015,12,13,15,27,9.60
2015,12,13,15,28,9.60
2015,12,13,15,29,9.60
2015,12,13,15,30,6.40
2015,12,13,15,31,12.90
2015,12,13,15,32,12.90
2015,12,13,15,33,11.30
2015,12,13,15,34,11.30
2015,12,13,15,35,14.50
2015,12,13,15,36,8.10
2015,12,13,15,37,8.10
2015,12,13,15,38,8.10
2015,12,13,15,39,9.60
2015,12,13,15,40,14.50
2015,12,13,15,41,16.10
2015,12,13,15,42,8.10
2015,12,13,15,43,16.10
2015,12,13,15,44,17.70
2015,12,13,15,45,12.90
2015,12,13,15,46,17.70
2015,12,13,15,47,17.70
2015,12,13,15,48,17.70
2015,12,13,15,49,11.30
2015,12,13,15,50,16.10
2015,12,13,15,51,17.70
2015,12,13,15,52,16.10
2015,12,13,15,53,14.50
2015,12,13,15,54,14.50
2015,12,13,15,55,17.70
2015,12,13,15,56,14.50
2015,12,13,15,57,12.90
2015,12,13,15,58,9.60
2015,12,13,15,59,16.10
2015,12,13,16,00,14.50
2015,12,13,16,01,8.10
2015,12,13,16,02,9.60
2015,12,13,16,03,11.30
2015,12,13,16,04,9.60
2015,12,13,16,05,11.30
2015,12,13,16,06,11.30
2015,12,13,16,07,11.30
2015,12,13,16,08,9.60
2015,12,13,16,09,6.40
2015,12,13,16,10,4.80
2015,12,13,16,11,6.40
2015,12,13,16,12,8.10
2015,12,13,16,13,6.40
2015,12,13,16,14,1.60
2015,12,13,16,15,1.60
2015,12,13,16,16,3.20
2015,12,13,16,17,3.20
2015,12,13,16,18,1.60
2015,12,13,16,19,3.20
2015,12,13,16,20,3.20
2015,12,13,16,21,4.80
2015,12,13,16,22,4.80
2015,12,13,16,23,6.40
2015,12,13,16,24,4.80
2015,12,13,16,25,6.40
2015,12,13,16,26,6.40
2015,12,13,16,27,6.40
2015,12,13,16,28,6.40
2015,12,13,16,29,4.80
2015,12,13,16,30,4.80
2015,12,13,16,31,3.20
2015,12,13,16,32,4.80
2015,12,13,16,33,4.80
2015,12,13,16,34,4.80
2015,12,13,16,35,4.80
2015,12,13,16,36,4.80
2015,12,13,16,37,4.80
2015,12,13,16,38,4.80
2015,12,13,16,39,8.10
2015,12,13,16,40,8.10
2015,12,13,16,41,11.30
2015,12,13,16,42,8.10
2015,12,13,16,43,9.60
2015,12,13,16,44,14.50
2015,12,13,16,45,14.50
2015,12,13,16,46,12.90
2015,12,13,16,47,9.60
2015,12,13,16,48,12.90
2015,12,13,16,49,9.60
2015,12,13,16,50,11.30
2015,12,13,16,51,9.60
2015,12,13,16,52,12.90
2015,12,13,16,53,9.60
2015,12,13,16,54,9.60
2015,12,13,16,55,6.40
2015,12,13,16,56,11.30
2015,12,13,16,57,9.60
2015,12,13,16,58,9.60
2015,12,13,16,59,6.40
2015,12,13,17,00,6.40
2015,12,13,17,01,8.10
2015,12,13,17,02,8.10
2015,12,13,17,03,8.10
2015,12,13,17,04,6.40
2015,12,13,17,05,4.80
2015,12,13,17,06,8.10
2015,12,13,17,07,8.10
2015,12,13,17,08,6.40
2015,12,13,17,09,4.80
2015,12,13,17,10,4.80
2015,12,13,17,11,6.40
2015,12,13,17,12,4.80
2015,12,13,17,13,4.80
2015,12,13,17,14,4.80
2015,12,13,17,15,6.40
2015,12,13,17,16,3.20
2015,12,13,17,17,4.80
2015,12,13,17,18,6.40
2015,12,13,17,19,8.10
2015,12,13,17,20,6.40
2015,12,13,17,21,6.40
2015,12,13,17,22,6.40
2015,12,13,17,23,8.10
2015,12,13,17,24,9.60
2015,12,13,17,25,6.40
2015,12,13,17,26,6.40
2015,12,13,17,27,4.80
2015,12,13,17,28,8.10
2015,12,13,17,29,6.40
2015,12,13,17,30,6.40
2015,12,13,17,31,4.80
2015,12,13,17,32,3.20
2015,12,13,17,33,4.80
2015,12,13,17,34,8.10
2015,12,13,17,35,8.10
2015,12,13,17,36,8.10
2015,12,13,17,37,4.80